| time (UTC) | temp F | wind direction | speed MPH | gust MPH | rain 1hr in | rain 24hr in | rain mn in | humidity % | barometer mb |
| 20260504001715 | 58 | 60 | 1.0 | 7.0 | 0.00 | 0.00 | 0.00 | 87 | 1012.0 |
| 20260504001219 | 58 | 22 | 4.0 | 7.0 | 0.00 | 0.00 | 0.00 | 87 | 1012.0 |
| 20260504000704 | 58 | 25 | 3.0 | 8.0 | 0.00 | 0.00 | 0.00 | 87 | 1012.0 |
| 20260504000213 | 58 | 68 | 5.0 | 8.0 | 0.00 | 0.00 | 0.00 | 87 | 1012.0 |
| 20260503235718 | 59 | 67 | 4.0 | 7.0 | 0.00 | 0.00 | 0.00 | 86 | 1012.0 |
| 20260503234714 | 59 | 8 | 4.0 | 7.0 | 0.00 | 0.00 | 0.00 | 87 | 1012.0 |
| 20260503234217 | 59 | 39 | 3.0 | 5.0 | 0.00 | 0.00 | 0.00 | 86 | 1012.2 |
| 20260503233706 | 59 | 12 | 3.0 | 5.0 | 0.00 | 0.00 | 0.00 | 86 | 1012.2 |
| 20260503233215 | 59 | 73 | 3.0 | 6.0 | 0.00 | 0.00 | 0.00 | 85 | 1012.3 |
| 20260503232715 | 59 | 74 | 2.0 | 8.0 | 0.00 | 0.00 | 0.00 | 84 | 1012.3 |
| 20260503232205 | 59 | 19 | 3.0 | 8.0 | 0.00 | 0.00 | 0.00 | 84 | 1012.2 |
| 20260503231712 | 59 | 36 | 4.0 | 7.0 | 0.00 | 0.00 | 0.00 | 84 | 1012.3 |
| 20260503231210 | 60 | 59 | 4.0 | 9.0 | 0.00 | 0.00 | 0.00 | 83 | 1012.3 |
| 20260503230713 | 60 | 30 | 3.0 | 9.0 | 0.00 | 0.00 | 0.00 | 83 | 1012.3 |
| 20260503230205 | 60 | 42 | 4.0 | 7.0 | 0.00 | 0.00 | 0.00 | 83 | 1012.3 |
| 20260503225711 | 60 | 14 | 4.0 | 8.0 | 0.00 | 0.00 | 0.00 | 83 | 1012.3 |
| 20260503225213 | 60 | 5 | 5.0 | 8.0 | 0.00 | 0.00 | 0.00 | 83 | 1012.3 |
| 20260503224217 | 60 | 52 | 4.0 | 8.0 | 0.00 | 0.00 | 0.00 | 83 | 1012.4 |
| 20260503223717 | 60 | 4 | 4.0 | 8.0 | 0.00 | 0.00 | 0.00 | 83 | 1012.3 |
| 20260503223210 | 60 | 12 | 5.0 | 9.0 | 0.00 | 0.00 | 0.00 | 84 | 1012.4 |
| 20260503222717 | 60 | 16 | 4.0 | 10.0 | 0.00 | 0.00 | 0.00 | 83 | 1012.4 |
| 20260503222218 | 60 | 26 | 5.0 | 10.0 | 0.00 | 0.00 | 0.00 | 82 | 1012.3 |
| 20260503221711 | 60 | 39 | 5.0 | 11.0 | 0.00 | 0.00 | 0.00 | 81 | 1012.3 |
| 20260503221211 | 60 | 57 | 6.0 | 11.0 | 0.00 | 0.00 | 0.00 | 81 | 1012.3 |
| 20260503220717 | 60 | 30 | 6.0 | 13.0 | 0.00 | 0.00 | 0.00 | 81 | 1012.2 |
| 20260503220212 | 60 | 21 | 6.0 | 13.0 | 0.00 | 0.00 | 0.00 | 81 | 1012.2 |
| 20260503215715 | 60 | 355 | 7.0 | 13.0 | 0.00 | 0.00 | 0.00 | 82 | 1012.2 |
| 20260503215218 | 60 | 26 | 7.0 | 12.0 | 0.00 | 0.00 | 0.00 | 82 | 1012.3 |
| 20260503214212 | 60 | 9 | 7.0 | 11.0 | 0.00 | 0.00 | 0.00 | 82 | 1012.3 |
| 20260503213713 | 60 | 0 | 8.0 | 12.0 | 0.00 | 0.00 | 0.00 | 83 | 1012.2 |
| 20260503213217 | 60 | 22 | 6.0 | 12.0 | 0.00 | 0.00 | 0.00 | 83 | 1012.2 |
| 20260503211707 | 60 | 11 | 7.0 | 12.0 | 0.00 | 0.00 | 0.00 | 84 | 1012.3 |
| 20260503210711 | 60 | 15 | 6.0 | 11.0 | 0.00 | 0.00 | 0.00 | 83 | 1012.3 |
| 20260503210215 | 60 | 11 | 7.0 | 11.0 | 0.00 | 0.00 | 0.00 | 83 | 1012.3 |
| 20260503205707 | 60 | 9 | 7.0 | 11.0 | 0.00 | 0.00 | 0.00 | 82 | 1012.2 |
| 20260503205210 | 60 | 16 | 7.0 | 11.0 | 0.00 | 0.00 | 0.00 | 82 | 1012.3 |
| 20260503204717 | 61 | 25 | 6.0 | 11.0 | 0.00 | 0.00 | 0.00 | 82 | 1012.3 |
| 20260503204213 | 61 | 30 | 5.0 | 14.0 | 0.00 | 0.00 | 0.00 | 81 | 1012.3 |
| 20260503202210 | 62 | 47 | 6.0 | 16.0 | 0.00 | 0.00 | 0.00 | 77 | 1012.1 |
| 20260503201216 | 62 | 47 | 8.0 | 16.0 | 0.00 | 0.00 | 0.00 | 77 | 1012.0 |
| 20260503200712 | 62 | 9 | 8.0 | 16.0 | 0.00 | 0.00 | 0.00 | 76 | 1012.1 |
| 20260503200214 | 62 | 64 | 9.0 | 16.0 | 0.00 | 0.00 | 0.00 | 76 | 1012.0 |
| 20260503195715 | 62 | 52 | 8.0 | 12.0 | 0.00 | 0.00 | 0.00 | 76 | 1012.0 |
| 20260503195216 | 62 | 59 | 7.0 | 12.0 | 0.00 | 0.00 | 0.00 | 76 | 1012.0 |
| 20260503194715 | 62 | 40 | 5.0 | 15.0 | 0.00 | 0.00 | 0.00 | 76 | 1012.0 |
| 20260503194205 | 62 | 8 | 6.0 | 15.0 | 0.00 | 0.00 | 0.00 | 76 | 1012.0 |
| 20260503193210 | 62 | 54 | 6.0 | 16.0 | 0.00 | 0.00 | 0.00 | 76 | 1011.9 |
| 20260503192709 | 62 | 50 | 9.0 | 16.0 | 0.00 | 0.00 | 0.00 | 77 | 1011.7 |
| 20260503192207 | 62 | 70 | 8.0 | 13.0 | 0.00 | 0.00 | 0.00 | 77 | 1011.7 |
| 20260503191715 | 62 | 46 | 9.0 | 17.0 | 0.00 | 0.00 | 0.00 | 77 | 1011.7 |
| 20260503191217 | 62 | 46 | 7.0 | 17.0 | 0.00 | 0.00 | 0.00 | 77 | 1012.0 |
| 20260503190712 | 62 | 35 | 9.0 | 13.0 | 0.00 | 0.00 | 0.00 | 77 | 1011.9 |
| 20260503190211 | 62 | 26 | 6.0 | 17.0 | 0.00 | 0.00 | 0.00 | 77 | 1011.9 |
| 20260503185719 | 62 | 35 | 8.0 | 17.0 | 0.00 | 0.00 | 0.00 | 77 | 1012.0 |
| 20260503185217 | 62 | 56 | 8.0 | 15.0 | 0.00 | 0.00 | 0.00 | 77 | 1011.9 |
| 20260503184717 | 62 | 57 | 9.0 | 16.0 | 0.00 | 0.00 | 0.00 | 77 | 1011.7 |
| 20260503184219 | 63 | 26 | 7.0 | 16.0 | 0.00 | 0.00 | 0.00 | 76 | 1011.7 |
| 20260503183218 | 63 | 54 | 9.0 | 19.0 | 0.00 | 0.00 | 0.00 | 77 | 1011.6 |
| 20260503182709 | 63 | 54 | 10.0 | 19.0 | 0.00 | 0.00 | 0.00 | 77 | 1011.5 |
| 20260503182208 | 63 | 53 | 10.0 | 19.0 | 0.00 | 0.00 | 0.00 | 76 | 1011.6 |
| 20260503181710 | 63 | 60 | 7.0 | 16.0 | 0.00 | 0.00 | 0.00 | 76 | 1011.6 |
| 20260503181216 | 63 | 57 | 10.0 | 18.0 | 0.00 | 0.00 | 0.00 | 76 | 1011.7 |
| 20260503180707 | 63 | 52 | 7.0 | 18.0 | 0.00 | 0.00 | 0.00 | 76 | 1011.7 |
| 20260503180217 | 63 | 46 | 8.0 | 18.0 | 0.00 | 0.00 | 0.00 | 75 | 1011.7 |
| 20260503175715 | 63 | 64 | 8.0 | 15.0 | 0.00 | 0.00 | 0.00 | 75 | 1011.9 |
| 20260503175211 | 64 | 61 | 7.0 | 15.0 | 0.00 | 0.00 | 0.00 | 75 | 1012.0 |
| 20260503174718 | 64 | 49 | 9.0 | 15.0 | 0.00 | 0.00 | 0.00 | 75 | 1012.0 |
| 20260503174215 | 64 | 60 | 9.0 | 18.0 | 0.00 | 0.00 | 0.00 | 75 | 1012.0 |
| 20260503173705 | 64 | 66 | 8.0 | 18.0 | 0.00 | 0.00 | 0.00 | 75 | 1011.9 |
| 20260503173206 | 64 | 43 | 11.0 | 14.0 | 0.00 | 0.00 | 0.00 | 74 | 1012.0 |
| 20260503172713 | 64 | 50 | 8.0 | 17.0 | 0.00 | 0.00 | 0.00 | 74 | 1012.0 |
| 20260503172238 | 64 | 43 | 8.0 | 17.0 | 0.00 | 0.00 | 0.00 | 74 | 1012.0 |
| 20260503171704 | 64 | 45 | 9.0 | 18.0 | 0.00 | 0.00 | 0.00 | 74 | 1012.0 |
| 20260503171216 | 64 | 57 | 10.0 | 19.0 | 0.00 | 0.00 | 0.00 | 74 | 1012.0 |
| 20260503170717 | 64 | 74 | 11.0 | 19.0 | 0.00 | 0.00 | 0.00 | 74 | 1012.0 |
| 20260503170231 | 64 | 29 | 11.0 | 19.0 | 0.00 | 0.00 | 0.00 | 74 | 1012.0 |
| 20260503140216 | 68 | 56 | 13.0 | 29.0 | 0.00 | 0.00 | 0.00 | 67 | 1012.5 |
| 20260503131212 | 70 | 42 | 11.0 | 23.0 | 0.00 | 0.00 | 0.00 | 65 | 1013.0 |
| 20260503130712 | 70 | 18 | 12.0 | 23.0 | 0.00 | 0.00 | 0.00 | 65 | 1013.1 |
| 20260503120216 | 72 | 37 | 9.0 | 20.0 | 0.00 | 0.00 | 0.00 | 61 | 1013.4 |
| 20260503100205 | 69 | 56 | 9.0 | 14.0 | 0.00 | 0.00 | 0.00 | 63 | 1014.6 |
| 20260503090211 | 66 | 1 | 7.0 | 13.0 | 0.00 | 0.00 | 0.00 | 67 | 1014.9 |
| 20260503081209 | 65 | 358 | 6.0 | 12.0 | 0.00 | 0.00 | 0.00 | 71 | 1014.9 |
| 20260503080719 | 64 | 23 | 7.0 | 12.0 | 0.00 | 0.00 | 0.00 | 72 | 1015.0 |
| 20260503080212 | 64 | 64 | 6.0 | 11.0 | 0.00 | 0.00 | 0.00 | 74 | 1015.0 |
| 20260503072734 | 62 | 33 | 0.0 | 3.0 | 0.00 | 0.00 | 0.00 | 78 | 1014.9 |
| 20260503070714 | 59 | 0 | 0.0 | 2.0 | 0.00 | 0.00 | 0.00 | 81 | 1014.9 |
| 20260503070206 | 59 | 196 | 1.0 | 3.0 | 0.00 | 0.00 | 0.00 | 81 | 1014.7 |
| 20260503060219 | 56 | 0 | 0.0 | 0.0 | 0.00 | 0.00 | 0.00 | 88 | 1014.6 |
| 20260503054713 | 56 | 165 | 1.0 | 2.0 | 0.00 | 0.00 | 0.00 | 88 | 1014.2 |
| 20260503053717 | 55 | 219 | 0.0 | 2.0 | 0.00 | 0.00 | 0.00 | 88 | 1014.2 |
| 20260503053219 | 55 | 0 | 0.0 | 0.0 | 0.00 | 0.00 | 0.00 | 88 | 1014.1 |
| 20260503052219 | 55 | 0 | 0.0 | 2.0 | 0.00 | 0.00 | 0.00 | 88 | 1014.1 |
| 20260503051706 | 55 | 82 | 0.0 | 2.0 | 0.00 | 0.00 | 0.00 | 88 | 1013.9 |
| 20260503051219 | 55 | 112 | 1.0 | 2.0 | 0.00 | 0.00 | 0.00 | 88 | 1013.8 |
| 20260503050218 | 55 | 284 | 0.0 | 2.0 | 0.00 | 0.00 | 0.00 | 88 | 1013.8 |
| 20260503045707 | 55 | 275 | 2.0 | 2.0 | 0.00 | 0.00 | 0.00 | 88 | 1013.9 |
| 20260503045208 | 55 | 255 | 1.0 | 3.0 | 0.00 | 0.00 | 0.00 | 88 | 1013.8 |
| 20260503044713 | 55 | 0 | 0.0 | 3.0 | 0.00 | 0.00 | 0.00 | 88 | 1013.7 |
| 20260503044210 | 55 | 281 | 2.0 | 2.0 | 0.00 | 0.00 | 0.00 | 87 | 1013.6 |
| 20260503043718 | 55 | 64 | 1.0 | 3.0 | 0.00 | 0.00 | 0.00 | 87 | 1013.4 |
| 20260503042706 | 55 | 264 | 2.0 | 3.0 | 0.00 | 0.00 | 0.00 | 87 | 1013.5 |
| 20260503041218 | 56 | 0 | 0.0 | 2.0 | 0.00 | 0.00 | 0.00 | 86 | 1013.3 |
| 20260503040716 | 56 | 181 | 1.0 | 2.0 | 0.00 | 0.00 | 0.00 | 86 | 1013.4 |
| 20260503040212 | 56 | 111 | 0.0 | 3.0 | 0.00 | 0.00 | 0.00 | 85 | 1013.4 |
| 20260503035706 | 56 | 167 | 1.0 | 3.0 | 0.00 | 0.00 | 0.00 | 85 | 1013.4 |
| 20260503035207 | 56 | 144 | 2.0 | 3.0 | 0.00 | 0.00 | 0.00 | 85 | 1013.5 |
| 20260503034717 | 56 | 153 | 1.0 | 3.0 | 0.00 | 0.00 | 0.00 | 85 | 1013.5 |
| 20260503033708 | 56 | 123 | 1.0 | 3.0 | 0.00 | 0.00 | 0.00 | 85 | 1013.5 |
| 20260503033213 | 56 | 154 | 0.0 | 4.0 | 0.00 | 0.00 | 0.00 | 85 | 1013.4 |
| 20260503032719 | 56 | 188 | 0.0 | 6.0 | 0.00 | 0.00 | 0.00 | 85 | 1013.3 |
| 20260503032219 | 56 | 213 | 1.0 | 6.0 | 0.00 | 0.00 | 0.00 | 85 | 1013.6 |
| 20260503031719 | 56 | 247 | 3.0 | 6.0 | 0.00 | 0.00 | 0.00 | 85 | 1013.6 |
| 20260503031216 | 56 | 258 | 4.0 | 6.0 | 0.00 | 0.00 | 0.00 | 85 | 1013.6 |
| 20260503030715 | 56 | 262 | 2.0 | 5.0 | 0.00 | 0.00 | 0.00 | 85 | 1013.7 |
| 20260503025705 | 56 | 115 | 3.0 | 1.0 | 0.00 | 0.00 | 0.00 | 85 | 1013.6 |
| 20260503025218 | 56 | 0 | 0.0 | 1.0 | 0.00 | 0.00 | 0.00 | 85 | 1013.5 |
| 20260503024210 | 56 | 116 | 0.0 | 3.0 | 0.00 | 0.00 | 0.00 | 85 | 1013.9 |
| 20260503023709 | 56 | 29 | 1.0 | 3.0 | 0.00 | 0.00 | 0.00 | 85 | 1014.0 |
| 20260503022710 | 56 | 170 | 1.0 | 3.0 | 0.00 | 0.00 | 0.00 | 85 | 1014.0 |
| 20260503022218 | 56 | 181 | 1.0 | 2.0 | 0.00 | 0.00 | 0.00 | 85 | 1014.0 |
| 20260503021717 | 56 | 233 | 0.0 | 2.0 | 0.00 | 0.00 | 0.00 | 85 | 1014.2 |
| 20260503021205 | 56 | 157 | 0.0 | 3.0 | 0.00 | 0.00 | 0.00 | 85 | 1014.2 |
| 20260503020711 | 56 | 333 | 1.0 | 3.0 | 0.00 | 0.00 | 0.00 | 85 | 1014.2 |
| 20260503020242 | 56 | 63 | 2.0 | 2.0 | 0.00 | 0.00 | 0.00 | 85 | 1014.2 |
| 20260503015716 | 56 | 330 | 0.0 | 2.0 | 0.00 | 0.00 | 0.00 | 85 | 1014.1 |
| 20260503015210 | 56 | 282 | 1.0 | 2.0 | 0.00 | 0.00 | 0.00 | 85 | 1014.1 |
| 20260503014215 | 56 | 151 | 0.0 | 3.0 | 0.00 | 0.00 | 0.00 | 85 | 1014.3 |
| 20260503013712 | 56 | 158 | 0.0 | 3.0 | 0.00 | 0.00 | 0.00 | 84 | 1014.4 |
| 20260503013213 | 56 | 151 | 1.0 | 2.0 | 0.00 | 0.00 | 0.00 | 84 | 1014.3 |
| 20260503012718 | 56 | 112 | 1.0 | 2.0 | 0.00 | 0.00 | 0.00 | 84 | 1014.4 |
| 20260503012211 | 56 | 0 | 0.0 | 3.0 | 0.00 | 0.00 | 0.00 | 84 | 1014.3 |
| 20260503011707 | 56 | 196 | 1.0 | 3.0 | 0.00 | 0.00 | 0.00 | 84 | 1014.4 |
| 20260503011214 | 56 | 175 | 1.0 | 1.0 | 0.00 | 0.00 | 0.00 | 84 | 1014.4 |
| 20260503010705 | 56 | 0 | 0.0 | 3.0 | 0.00 | 0.00 | 0.00 | 84 | 1014.4 |
| 20260503010240 | 56 | 205 | 1.0 | 3.0 | 0.00 | 0.00 | 0.00 | 84 | 1014.5 |
| 20260503005715 | 56 | 187 | 2.0 | 3.0 | 0.00 | 0.00 | 0.00 | 84 | 1014.5 |
| 20260503005213 | 56 | 172 | 0.0 | 3.0 | 0.00 | 0.00 | 0.00 | 84 | 1014.6 |
| 20260503004719 | 56 | 174 | 1.0 | 3.0 | 0.00 | 0.00 | 0.00 | 84 | 1014.6 |
| 20260503004208 | 56 | 184 | 1.0 | 4.0 | 0.00 | 0.00 | 0.00 | 83 | 1014.6 |
| 20260503003206 | 56 | 99 | 1.0 | 2.0 | 0.00 | 0.00 | 0.00 | 83 | 1014.7 |
| 20260503002705 | 56 | 219 | 2.0 | 3.0 | 0.00 | 0.00 | 0.00 | 83 | 1014.7 |
| 20260503002211 | 56 | 243 | 1.0 | 3.0 | 0.00 | 0.00 | 0.00 | 83 | 1014.7 |